Location: Rowland
(34.5359°N, 79.2929°W)
Time: 19:56:01
(UTC+00:00)

Vanguard 2 - Pass Details

Date: 04 October 2022
Orbit: 553 x 2933 km, 32.9° (Epoch: 06 December)

Event Time Altitude Azimuth Distance (km) Brightness Sun altitude
Rises 23:33:19 0° 284° (WNW) 6,255 14.0 -8.3°
Reaches altitude 10° 23:37:22 10° 279° (W) 5,448 13.5 -9.1°
Maximum altitude 23:53:20 48° 213° (SSW) 3,528 11.1 -12.4°
Drops below altitude 10° 00:08:47 10° 145° (SE) 5,257 11.4 -15.6°
Sets 00:12:40 0° 139° (SE) 6,026 11.7 -16.4°
